This demonstration page uses our WeatherBlox Daily Observations layout. Learn more.

Left ArrowRight Arrow

34.02893, -84.19858

Hourly Observations for June 4, 2022

Temp ( °F °C ) Dew Point ( °F °C ) Humidity (%) Winds ( mph kmh ) Pressure ( in mb ) Visibility ( mi km ) Precip ( " mm )
12:53 am 00:53 Cloudy 72 22.2 64 17.8 76 76 undefined N/A 29.85 1011 10 16 0.00 0.00
1:10 am 01:10 Cloudy 72 22.2 65 18.3 79 79 VRB 5 7 29.88 1012 10 16 0.00 0.00
1:22 am 01:22 Cloudy 71 21.7 65 18.3 81 81 undefined N/A 29.88 1012 10 16 0.00 0.00
1:53 am 01:53 Mostly Cloudy 71 21.7 65 18.3 81 81 Calm 29.85 1011 10 16 0.00 0.00
2:53 am 02:53 Mostly Clear 70 21.1 64 17.8 82 82 VRB 3 6 29.83 1010 10 16 0.00 0.00
3:53 am 03:53 Clear 69 20.6 64 17.8 84 84 NNE 5 7 29.82 1010 10 16 0.00 0.00
4:53 am 04:53 Mostly Clear 68 20 64 17.8 87 87 VRB 5 7 29.83 1010 10 16 0.00 0.00
5:53 am 05:53 Partly Cloudy 67 19.4 63 17.2 87 87 VRB 6 9 29.85 1011 10 16 0.00 0.00
6:53 am 06:53 Sunny 66 18.9 61 16.1 84 84 VRB 3 6 29.86 1011 10 16 0.00 0.00
7:53 am 07:53 Sunny 69 20.6 61 16.1 76 76 Calm 29.88 1012 10 16 0.00 0.00
8:53 am 08:53 Sunny 72 22.2 60 15.6 66 66 VRB 3 6 29.88 1012 10 16 0.00 0.00
9:53 am 09:53 Sunny 75 23.9 56 13.3 52 52 E 8 13 29.88 1012 10 16 0.00 0.00
10:53 am 10:53 Sunny 77 25 57 13.9 50 50 VRB 7 11 29.87 1012 10 16 0.00 0.00
11:53 am 11:53 Sunny 79 26.1 57 13.9 47 47 NE 9 15 29.86 1011 10 16 0.00 0.00
12:53 pm 12:53 Partly Cloudy 81 27.2 57 13.9 44 44 NE 8 13 29.85 1011 10 16 0.00 0.00
1:53 pm 13:53 Mostly Sunny 82 27.8 58 14.4 44 44 VRB 3 6 29.84 1010 10 16 0.00 0.00
2:53 pm 14:53 Partly Cloudy 82 27.8 58 14.4 44 44 VRB 5 7 29.83 1010 10 16 0.00 0.00
3:53 pm 15:53 Partly Cloudy 83 28.3 57 13.9 41 41 VRB 7 11 29.82 1010 10 16 0.00 0.00
4:53 pm 16:53 Mostly Cloudy 81 27.2 55 12.8 41 41 VRB 5 7 29.81 1010 10 16 0.00 0.00
5:53 pm 17:53 Mostly Sunny 82 27.8 56 13.3 41 41 VRB 3 6 29.81 1009 10 16 0.00 0.00
6:53 pm 18:53 Sunny 82 27.8 56 13.3 41 41 VRB 3 6 29.80 1009 10 16 0.00 0.00
7:53 pm 19:53 Sunny 80 26.7 57 13.9 45 45 VRB 5 7 29.80 1009 10 16 0.00 0.00
8:53 pm 20:53 Clear 77 25 56 13.3 48 48 Calm 29.80 1009 10 16 0.00 0.00
9:53 pm 21:53 Clear 75 23.9 55 12.8 50 50 Calm 29.80 1009 10 16 0.00 0.00
10:53 pm 22:53 Clear 73 22.8 56 13.3 55 55 Calm 29.82 1010 10 16 0.00 0.00
11:53 pm 23:53 Clear 71 21.7 57 13.9 61 61 Calm 29.82 1010 10 16 0.00 0.00

Powered by AerisWeather